Flag for France Weather past 2 weeks in Bordeaux, France

Now
81 °F

Clear.


Feels Like: 82 °F
Forecast: 65 / 85 °F
Wind: 9 mph from Southeast

Location: Bordeaux / Merignac

Current Time: Sep 17, 2014 at 12:34:34 PM

Latest Report: Sep 17, 2014 at 12:00 PM


Visibility: N/A

Pressure: 29.68 "Hg

Humidity: 54%

Dew point: 63 °F

Location of BordeauxLocation

Historic Weather in Bordeaux — Graph

°F

Bordeaux temperature yesterday

Maximum temperature yesterday: 82 °F (at 5:30 PM)
Minimum temperature yesterday: 63 °F (at 4:00 AM)
Average temperature yesterday: 72 °F

Past Weeks' High & Low Weather Summary

 TemperatureHumidityPressure
High88 °F (Sep 7, 5:30 PM)100% (Sep 4, 7:00 AM)30.09 "Hg (Sep 4, 7:00 AM)
Low55 °F (Sep 4, 7:00 AM)32% (Sep 12, 4:00 PM)29.65 "Hg (Sep 17, 3:00 AM)
Average71 °F68%29.93 "Hg
* Reported Sep 2 11:00 AM — Sep 17 11:30 AM, Bordeaux, Weather by CustomWeather, © 2014

Note: Actual official high and low records may vary slightly from our data, if they occured in-between our weather recording intervals... More about our weather records

Advertising

Bordeaux weather history for previous 24 hours

 ConditionsComfort  
Time TempWeatherWind HumidityBarometerVisibility
11:30 AM
Sep 17
79 °FClear.10 mph58%29.71 "HgN/A
11:00 AM77 °FClear.13 mph61%29.71 "HgN/A
10:30 AM75 °FClear.13 mph65%29.71 "HgN/A
10:00 AM72 °FClear.13 mph73%29.68 "HgN/A
9:30 AM70 °FClear.13 mph73%29.68 "HgN/A
9:00 AM68 °FClear.12 mph78%29.68 "HgN/A
8:30 AM66 °FClear.12 mph83%29.68 "HgN/A
8:00 AM66 °FClear.12 mph83%29.68 "HgN/A
7:30 AM66 °FClear.10 mph83%29.68 "HgN/A
7:00 AM66 °FClear.9 mph83%29.65 "HgN/A
6:30 AM66 °FClear.9 mph88%29.65 "HgN/A
6:00 AM68 °FClear.12 mph83%29.65 "HgN/A
5:30 AM68 °FClear.8 mph83%29.65 "HgN/A
5:00 AM68 °FClear.6 mph83%29.65 "HgN/A
4:30 AM68 °FClear.3 mph83%29.65 "HgN/A
4:00 AM70 °FClear.9 mph78%29.65 "HgN/A
3:30 AM72 °FClear.8 mph73%29.65 "HgN/A
3:00 AM72 °FClear.9 mph73%29.65 "HgN/A
2:30 AM72 °FLight rain. Clear.8 mph78%29.68 "HgN/A
2:00 AM72 °FClear.12 mph78%29.71 "HgN/A
1:30 AM72 °FClear.8 mph78%29.71 "HgN/A
1:00 AM73 °FMostly cloudy.6 mph69%29.71 "HgN/A
12:30 AM73 °FPassing clouds.5 mph69%29.71 "HgN/A
12:00 AM73 °FPassing clouds.6 mph69%29.74 "HgN/A
11:30 PM
Sep 16
73 °FClear.10 mph65%29.68 "HgN/A
11:00 PM75 °FClear.10 mph61%29.68 "HgN/A
10:30 PM75 °FClear.12 mph61%29.68 "HgN/A
10:00 PM75 °FClear.10 mph61%29.68 "HgN/A
9:30 PM77 °FClear.9 mph57%29.68 "HgN/A
9:00 PM77 °FClear.10 mph57%29.68 "HgN/A
8:30 PM79 °FClear.10 mph58%29.68 "HgN/A
8:00 PM79 °FClear.9 mph58%29.68 "HgN/A
7:30 PM81 °FClear.10 mph54%29.68 "HgN/A
7:00 PM81 °FClear.10 mph54%29.68 "HgN/A
6:30 PM81 °FClear.13 mph51%29.68 "HgN/A
6:00 PM81 °FClear.16 mph51%29.68 "HgN/A
5:30 PM82 °FClear.17 mph51%29.71 "HgN/A
5:00 PM81 °FClear.15 mph54%29.71 "HgN/A
4:30 PM81 °FClear.15 mph51%29.71 "HgN/A
4:00 PM79 °FClear.18 mph54%29.71 "HgN/A
3:30 PM79 °FClear.14 mph54%29.74 "HgN/A
3:00 PM79 °FClear.12 mph58%29.77 "HgN/A
2:30 PM79 °FClear.12 mph58%29.77 "HgN/A
2:00 PM75 °FClear.14 mph61%29.77 "HgN/A
1:30 PM77 °FClear.15 mph61%29.77 "HgN/A
1:00 PM75 °FClear.15 mph61%29.80 "HgN/A
12:30 PM77 °FClear.15 mph61%29.80 "HgN/A
12:00 PM73 °FClear.12 mph65%29.80 "HgN/A
Weather by CustomWeather, © 2014

See weather overviewHow to use our weather pages